• In Kazakhstan
  • List of Countries
  • For 7 days
  • Water Temperature
  • Satellite Maps
  • Weather Map
  • News
  • Weather Widgets
  • user-avatar
    Login

    Hourly Weather Baku

    Today, 24 April, Wednesday

    Time Temperature Precipitation Wind Pressure Humidity
    00:00 +10°C° 0 mm 2 mps 770 mmHg 54%
    01:00 +10°C° 0 mm 2 mps 770 mmHg 56%
    02:00 +10°C° 0 mm 3 mps 770 mmHg 57%
    03:00 +10°C° 0 mm 3 mps 769 mmHg 59%
    04:00 +10°C° 0 mm 3 mps 769 mmHg 59%
    05:00 +10°C° 0 mm 3 mps 770 mmHg 59%
    06:00 +10°C° 0 mm 3 mps 770 mmHg 58%
    07:00 +12°C° 0 mm 3 mps 770 mmHg 52%
    08:00 +13°C° 0 mm 4 mps 770 mmHg 45%
    09:00 +14°C° 0 mm 3 mps 770 mmHg 37%
    10:00 +16°C° 0 mm 2 mps 770 mmHg 36%
    11:00 +16°C° 0 mm 2 mps 770 mmHg 35%
    12:00 +18°C° 0 mm 1 mps 770 mmHg 33%
    13:00 +17°C° 0 mm 2 mps 770 mmHg 34%
    14:00 +18°C° 0 mm 3 mps 770 mmHg 34%
    15:00 +18°C° 0 mm 2 mps 769 mmHg 34%
    16:00 +17°C° 0 mm 3 mps 769 mmHg 36%
    17:00 +17°C° 0 mm 4 mps 769 mmHg 39%
    18:00 +16°C° 0 mm 5 mps 769 mmHg 41%
    19:00 +15°C° 0 mm 5 mps 769 mmHg 44%
    20:00 +14°C° 0 mm 6 mps 769 mmHg 47%
    21:00 +13°C° 0 mm 6 mps 769 mmHg 49%
    22:00 +13°C° 0 mm 6 mps 769 mmHg 47%
    23:00 +13°C° 0 mm 6 mps 769 mmHg 46%

    Tomorrow, 25 April, Thursday

    Time Temperature Precipitation Wind Pressure Humidity
    00:00 +13°C° 0 mm 6 mps 769 mmHg 44%
    01:00 +13°C° 0 mm 6 mps 769 mmHg 44%
    02:00 +13°C° 0 mm 6 mps 769 mmHg 43%
    03:00 +12°C° 0 mm 5 mps 769 mmHg 43%
    04:00 +12°C° 0 mm 5 mps 769 mmHg 43%
    05:00 +13°C° 0 mm 5 mps 769 mmHg 43%
    06:00 +13°C° 0 mm 5 mps 769 mmHg 43%
    07:00 +14°C° 0 mm 5 mps 769 mmHg 41%
    08:00 +15°C° 0 mm 4 mps 769 mmHg 38%
    09:00 +17°C° 0 mm 3 mps 770 mmHg 36%
    10:00 +17°C° 0 mm 4 mps 770 mmHg 42%
    11:00 +15°C° 0 mm 5 mps 770 mmHg 47%
    12:00 +15°C° 0 mm 6 mps 770 mmHg 53%
    13:00 +15°C° 0 mm 6 mps 770 mmHg 51%
    14:00 +16°C° 0 mm 6 mps 770 mmHg 49%
    15:00 +16°C° 0 mm 6 mps 770 mmHg 47%
    16:00 +15°C° 0 mm 5 mps 770 mmHg 49%
    17:00 +15°C° 0 mm 4 mps 770 mmHg 52%
    18:00 +14°C° 0 mm 3 mps 770 mmHg 54%
    19:00 +15°C° 0 mm 2 mps 770 mmHg 56%
    20:00 +15°C° 0 mm 2 mps 770 mmHg 58%
    21:00 +14°C° 0 mm 2 mps 770 mmHg 59%
    22:00 +14°C° 0 mm 2 mps 770 mmHg 60%
    23:00 +13°C° 0 mm 3 mps 770 mmHg 60%

    Day after tomorrow, 26 April, Friday

    Time Temperature Precipitation Wind Pressure Humidity
    00:00 +13°C° 0 mm 4 mps 770 mmHg 60%
    01:00 +13°C° 0 mm 4 mps 769 mmHg 59%
    02:00 +13°C° 0 mm 4 mps 769 mmHg 58%
    03:00 +13°C° 0 mm 4 mps 769 mmHg 57%
    04:00 +13°C° 0 mm 4 mps 769 mmHg 55%
    05:00 +13°C° 0 mm 3 mps 769 mmHg 54%
    06:00 +13°C° 0 mm 3 mps 769 mmHg 53%
    07:00 +16°C° 0 mm 3 mps 769 mmHg 49%
    08:00 +17°C° 0 mm 3 mps 769 mmHg 44%
    09:00 +18°C° 0 mm 3 mps 769 mmHg 40%
    10:00 +18°C° 0 mm 4 mps 769 mmHg 38%
    11:00 +19°C° 0 mm 4 mps 769 mmHg 35%
    12:00 +20°C° 0 mm 4 mps 769 mmHg 33%
    13:00 +20°C° 0 mm 5 mps 769 mmHg 32%
    14:00 +20°C° 0 mm 5 mps 768 mmHg 30%
    15:00 +20°C° 0 mm 6 mps 768 mmHg 29%
    16:00 +19°C° 0 mm 6 mps 768 mmHg 31%
    17:00 +17°C° 0 mm 6 mps 767 mmHg 34%
    18:00 +16°C° 0 mm 6 mps 767 mmHg 36%
    19:00 +15°C° 0 mm 6 mps 768 mmHg 39%
    20:00 +15°C° 0 mm 5 mps 768 mmHg 41%
    21:00 +14°C° 0 mm 5 mps 768 mmHg 44%
    22:00 +14°C° 0 mm 5 mps 768 mmHg 45%
    23:00 +14°C° 0 mm 5 mps 768 mmHg 46%

    27 April, Saturday

    Time Temperature Precipitation Wind Pressure Humidity
    00:00 +13°C° 0 mm 5 mps 767 mmHg 47%
    01:00 +13°C° 0 mm 4 mps 767 mmHg 48%
    02:00 +13°C° 0 mm 4 mps 767 mmHg 49%
    03:00 +13°C° 0 mm 4 mps 767 mmHg 51%
    04:00 +13°C° 0 mm 4 mps 767 mmHg 54%
    05:00 +12°C° 0 mm 4 mps 767 mmHg 58%
    06:00 +12°C° 0 mm 4 mps 767 mmHg 62%
    07:00 +13°C° 0 mm 5 mps 767 mmHg 59%
    08:00 +14°C° 0 mm 6 mps 767 mmHg 55%
    09:00 +15°C° 0 mm 6 mps 767 mmHg 52%
    10:00 +16°C° 0 mm 7 mps 767 mmHg 48%
    11:00 +17°C° 0 mm 7 mps 767 mmHg 45%
    12:00 +17°C° 0 mm 7 mps 767 mmHg 41%
    13:00 +17°C° 0 mm 7 mps 766 mmHg 41%
    14:00 +17°C° 0 mm 7 mps 766 mmHg 40%
    15:00 +17°C° 0 mm 7 mps 765 mmHg 40%
    16:00 +16°C° 0 mm 7 mps 765 mmHg 42%
    17:00 +16°C° 0 mm 6 mps 765 mmHg 45%
    18:00 +15°C° 0 mm 6 mps 765 mmHg 47%
    19:00 +15°C° 0 mm 5 mps 765 mmHg 50%
    20:00 +14°C° 0 mm 5 mps 765 mmHg 52%
    21:00 +14°C° 0 mm 4 mps 765 mmHg 55%
    22:00 +13°C° 0 mm 4 mps 765 mmHg 56%
    23:00 +13°C° 0 mm 4 mps 764 mmHg 57%

    28 April, Sunday

    Time Temperature Precipitation Wind Pressure Humidity
    00:00 +13°C° 0 mm 4 mps 764 mmHg 58%
    01:00 +13°C° 0 mm 4 mps 763 mmHg 58%
    02:00 +13°C° 0 mm 4 mps 763 mmHg 58%
    03:00 +13°C° 0 mm 4 mps 762 mmHg 58%
    04:00 +13°C° 0 mm 4 mps 762 mmHg 58%
    05:00 +13°C° 0 mm 5 mps 762 mmHg 58%
    06:00 +13°C° 0 mm 6 mps 762 mmHg 58%
    07:00 +14°C° 0 mm 6 mps 762 mmHg 54%
    08:00 +15°C° 0 mm 7 mps 762 mmHg 51%
    09:00 +17°C° 0 mm 8 mps 761 mmHg 48%
    10:00 +18°C° 0 mm 8 mps 761 mmHg 44%
    11:00 +20°C° 0 mm 8 mps 761 mmHg 40%
    12:00 +21°C° 0 mm 8 mps 761 mmHg 37%
    13:00 +22°C° 0 mm 8 mps 760 mmHg 36%
    14:00 +22°C° 0 mm 8 mps 760 mmHg 36%
    15:00 +23°C° 0 mm 7 mps 759 mmHg 35%
    16:00 +22°C° 0 mm 7 mps 759 mmHg 39%
    17:00 +21°C° 0 mm 7 mps 759 mmHg 42%
    18:00 +20°C° 0 mm 7 mps 759 mmHg 45%
    19:00 +18°C° 0 mm 7 mps 759 mmHg 47%
    20:00 +17°C° 0 mm 6 mps 759 mmHg 49%
    21:00 +17°C° 0 mm 5 mps 760 mmHg 51%
    22:00 +17°C° 0 mm 4 mps 759 mmHg 52%
    23:00 +17°C° 0 mm 3 mps 759 mmHg 53%

    29 April, Monday

    Time Temperature Precipitation Wind Pressure Humidity
    00:00 +17°C° 0 mm 3 mps 759 mmHg 54%
    01:00 +17°C° 0 mm 2 mps 759 mmHg 55%
    02:00 +16°C° 0 mm 2 mps 759 mmHg 57%
    03:00 +16°C° 0 mm 1 mps 758 mmHg 59%
    04:00 +16°C° 0 mm 1 mps 759 mmHg 58%
    05:00 +16°C° 0 mm 1 mps 759 mmHg 57%
    06:00 +16°C° 0 mm 1 mps 759 mmHg 55%
    07:00 +18°C° 0 mm 1 mps 759 mmHg 52%
    08:00 +19°C° 0 mm 1 mps 760 mmHg 49%
    09:00 +20°C° 0 mm 1 mps 760 mmHg 45%
    10:00 +21°C° 0 mm 1 mps 760 mmHg 44%
    11:00 +21°C° 0 mm 2 mps 760 mmHg 42%
    12:00 +21°C° 0 mm 2 mps 760 mmHg 40%
    13:00 +22°C° 0 mm 3 mps 759 mmHg 40%
    14:00 +22°C° 0 mm 3 mps 759 mmHg 40%
    15:00 +22°C° 0 mm 4 mps 759 mmHg 40%
    16:00 +21°C° 0 mm 4 mps 759 mmHg 41%
    17:00 +21°C° 0 mm 4 mps 759 mmHg 43%
    18:00 +20°C° 0 mm 4 mps 759 mmHg 45%
    19:00 +19°C° 0 mm 3 mps 760 mmHg 47%
    20:00 +19°C° 0 mm 2 mps 760 mmHg 50%
    21:00 +19°C° 0 mm 1 mps 760 mmHg 52%
    22:00 +19°C° 0 mm 1 mps 760 mmHg 53%
    23:00 +16°C° 0 mm 0 mps 760 mmHg 55%
    Show more